Clinton, MO

8:11 AM CDT on June 28, 2017 (GMT -0500)
Clinton Memorial

Weather History for KGLY - May, 2013

Change the Weather History Date:

Friday, May 3, 2013

  Actual Average (KSZL) Record (KSZL)
Temperature  
Mean Temperature 35 °F -  
Max Temperature 37 °F 70 °F 84 °F (2001)
Min Temperature 33 °F 51 °F 32 °F (2013)
Degree Days  
Heating Degree Days 30    
Moisture  
Dew Point 34 °F    
Average Humidity 97    
Maximum Humidity 100    
Minimum Humidity 87    
Precipitation  
Precipitation 0.00 in - - ()
Sea Level Pressure  
Sea Level Pressure 30.07 in    
Wind  
Wind Speed 11 mph (NNW)    
Max Wind Speed 18 mph    
Max Gust Speed 23 mph    
Visibility 3 miles    
Events Rain , Snow    
Averages and records for this station are not official NWS values.
T = Trace of Precipitation, MM = Missing Value Source: NWS Daily Summary

Daily Weather History Graph

Daily Weather History Graph

Search for Another Location

Airport or City:

Trip Planner

Search our weather history database for the weather conditions in past years. The results will help you decide how hot, cold, wet, or windy it might be!

Date:

Astronomy

May. 03, 2013 Rise Set
Actual Time 6:15 AM CDT 8:08 PM CDT
Civil Twilight 5:46 AM CDT 8:37 PM CDT
Nautical Twilight 5:11 AM CDT 9:12 PM CDT
Astronomical Twilight 4:34 AM CDT 9:49 PM CDT
Moon 2:35 AM CDT (5/3) 2:08 PM CDT (5/3)
Length of Visible Light 14h 50m
Length of Day
13h 53m
Last Quarter, 37% of the Moon is Illuminated
May 3
Last Quarter
May 9
New
May 17
First Quarter
May 24
Full
May 31
Last Quarter

Hourly Weather History & Observations

Time (CDT) Temp. Windchill Dew Point Humidity Pressure Visibility Wind Dir Wind Speed Gust Speed Precip Events Conditions
12:15 AM 33.8 °F 24.8 °F 33.8 °F 100% 30.26 in 1.0 mi NNW 12.7 mph - N/A Snow Light Snow
12:35 AM 33.8 °F 25.3 °F 33.8 °F 100% 30.26 in 1.0 mi NNW 11.5 mph - N/A Snow Light Snow
12:55 AM 33.8 °F 25.8 °F 33.8 °F 100% 30.24 in 1.5 mi NNW 10.4 mph - N/A Snow Light Snow
1:15 AM 33.8 °F 25.3 °F 33.8 °F 100% 30.23 in 0.5 mi NNW 11.5 mph - N/A Snow Heavy Snow
1:35 AM 33.8 °F 27.0 °F 33.8 °F 100% 30.24 in 0.5 mi NNW 8.1 mph - N/A Snow Snow
1:55 AM 33.8 °F 24.8 °F 33.8 °F 100% 30.22 in 1.5 mi NNW 12.7 mph - N/A Snow Light Snow
2:15 AM 33.8 °F 25.3 °F 33.8 °F 100% 30.21 in 1.5 mi North 11.5 mph - N/A Snow Light Snow
2:35 AM 33.8 °F 24.8 °F 33.8 °F 100% 30.20 in 1.2 mi NNW 12.7 mph - N/A Snow Snow
2:55 AM 33.8 °F 25.8 °F 33.8 °F 100% 30.19 in 0.5 mi NNW 10.4 mph - N/A Snow Heavy Snow
3:15 AM 33.8 °F 25.3 °F 33.8 °F 100% 30.18 in 0.5 mi NNW 11.5 mph - N/A Snow Snow
3:35 AM 33.8 °F 25.8 °F 33.8 °F 100% 30.17 in 0.8 mi NNW 10.4 mph - N/A Snow Light Snow
3:55 AM 33.8 °F 25.3 °F 33.8 °F 100% 30.15 in 1.5 mi NNW 11.5 mph - N/A Snow Light Snow
4:15 AM 33.8 °F 27.0 °F 33.8 °F 100% 30.18 in 3.0 mi NNW 8.1 mph - N/A Snow Light Snow
4:35 AM 33.8 °F 25.8 °F 33.8 °F 100% 30.17 in 5.0 mi NNW 10.4 mph - N/A   Overcast
4:55 AM 33.8 °F 25.8 °F 33.8 °F 100% 30.15 in 2.5 mi North 10.4 mph - N/A Snow Light Snow
5:15 AM 33.8 °F 25.3 °F 33.8 °F 100% 30.14 in 1.5 mi NNW 11.5 mph - N/A Snow Light Snow
5:35 AM 33.8 °F 27.0 °F 33.8 °F 100% 30.15 in 1.2 mi NNW 8.1 mph - N/A Snow Snow
5:55 AM 33.8 °F 27.7 °F 33.8 °F 100% 30.15 in 0.8 mi NNW 6.9 mph - N/A Snow Light Snow
6:15 AM 33.8 °F 27.0 °F 33.8 °F 100% 30.16 in 2.5 mi NNW 8.1 mph - N/A Snow Light Snow
6:35 AM 33.8 °F 26.4 °F 33.8 °F 100% 30.14 in 1.0 mi North 9.2 mph - N/A Snow Light Snow
6:55 AM 33.8 °F 25.8 °F 33.8 °F 100% 30.11 in 0.5 mi NNW 10.4 mph - N/A Snow Light Snow
7:15 AM 33.8 °F 26.4 °F 33.8 °F 100% 30.13 in 0.5 mi NNW 9.2 mph - N/A Snow Snow
7:35 AM 33.8 °F 26.4 °F 33.8 °F 100% 30.12 in 1.2 mi NNW 9.2 mph - N/A Snow Light Snow
7:55 AM 33.8 °F 25.8 °F 33.8 °F 100% 30.10 in 1.5 mi NNW 10.4 mph - N/A Snow Light Snow
8:15 AM 33.8 °F 27.0 °F 33.8 °F 100% 30.12 in 1.5 mi NW 8.1 mph - N/A Snow Light Snow
8:35 AM 33.8 °F 26.4 °F 33.8 °F 100% 30.11 in 2.0 mi NNW 9.2 mph - N/A Snow Light Snow
8:55 AM 33.8 °F 25.8 °F 33.8 °F 100% 30.10 in 2.5 mi NNW 10.4 mph - N/A Snow Light Snow
9:15 AM 33.8 °F 25.3 °F 33.8 °F 100% 30.09 in 1.8 mi NNW 11.5 mph - N/A Snow Light Snow
9:35 AM 33.8 °F 25.3 °F 33.8 °F 100% 30.09 in 2.0 mi NNW 11.5 mph - N/A Snow Light Snow
9:55 AM 33.8 °F 25.3 °F 33.8 °F 100% 30.10 in 1.5 mi NNW 11.5 mph - N/A Snow Light Snow
10:15 AM 33.8 °F 25.8 °F 33.8 °F 100% 30.09 in 0.8 mi NNW 10.4 mph - N/A Snow Light Snow
10:35 AM 33.8 °F 24.8 °F 33.8 °F 100% 30.09 in 1.2 mi NNW 12.7 mph - N/A Snow Light Snow
10:55 AM 33.8 °F 26.4 °F 33.8 °F 100% 30.08 in - NNW 9.2 mph - N/A Snow Light Snow
11:15 AM 35.6 °F 27.1 °F 33.8 °F 93% 30.08 in 2.0 mi NNW 12.7 mph - N/A Snow Light Snow
11:35 AM 35.6 °F 27.1 °F 33.8 °F 93% 30.08 in 2.5 mi NNW 12.7 mph - N/A Snow Light Snow
11:55 AM 35.6 °F 27.1 °F 33.8 °F 93% 30.08 in 2.5 mi NNW 12.7 mph 19.6 mph N/A Snow Light Snow
12:15 PM 35.6 °F 27.1 °F 33.8 °F 93% 30.07 in 1.8 mi NNW 12.7 mph 20.7 mph N/A Snow Light Snow
12:35 PM 35.6 °F 27.1 °F 33.8 °F 93% 30.06 in 1.8 mi NNW 12.7 mph - N/A Snow Light Snow
12:55 PM 35.6 °F 26.6 °F 33.8 °F 93% 30.04 in 1.5 mi NNW 13.8 mph - N/A Snow Light Snow
1:15 PM 35.6 °F 27.1 °F 33.8 °F 93% 30.05 in 2.5 mi NNW 12.7 mph 20.7 mph N/A   Overcast
1:35 PM 35.6 °F 25.5 °F 33.8 °F 93% 30.04 in 7.0 mi NNW 17.3 mph 21.9 mph N/A Rain Light Rain
1:55 PM 35.6 °F 26.6 °F 33.8 °F 93% 30.04 in 4.0 mi NNW 13.8 mph 17.3 mph N/A   Overcast
2:15 PM 35.6 °F 27.1 °F 33.8 °F 93% 30.04 in 5.0 mi NNW 12.7 mph - N/A Rain Light Rain
2:35 PM 35.6 °F 26.6 °F 33.8 °F 93% 30.04 in 4.0 mi NNW 13.8 mph - N/A Rain Light Rain
2:55 PM 35.6 °F 26.2 °F 33.8 °F 93% 30.03 in 5.0 mi NNW 15.0 mph 19.6 mph N/A   Mostly Cloudy
3:15 PM 35.6 °F 25.2 °F 33.8 °F 93% 30.02 in 9.0 mi NNW 18.4 mph 23.0 mph N/A   Mostly Cloudy
3:35 PM 37.4 °F 27.8 °F 33.8 °F 87% 30.01 in 10.0 mi NNW 17.3 mph 21.9 mph N/A   Mostly Cloudy
3:55 PM 37.4 °F 28.9 °F 33.8 °F 87% 30.02 in 9.0 mi NNW 13.8 mph 20.7 mph N/A   Overcast
4:15 PM 37.4 °F 28.5 °F 33.8 °F 87% 30.01 in 9.0 mi NNW 15.0 mph 18.4 mph N/A   Overcast
4:35 PM 37.4 °F 28.5 °F 33.8 °F 87% 30.00 in 8.0 mi NNW 15.0 mph 19.6 mph N/A   Overcast
4:55 PM 37.4 °F 28.9 °F 33.8 °F 87% 30.00 in 5.0 mi NNW 13.8 mph - N/A   Overcast
5:15 PM 37.4 °F 28.9 °F 33.8 °F 87% 30.00 in 8.0 mi NNW 13.8 mph 18.4 mph N/A Rain Light Rain
5:35 PM 35.6 °F 26.2 °F 33.8 °F 93% 29.99 in 3.0 mi NNW 15.0 mph - N/A Rain Light Rain
5:55 PM 35.6 °F 26.6 °F 33.8 °F 93% 29.99 in 4.0 mi NNW 13.8 mph - N/A   Light Drizzle
6:15 PM 35.6 °F 27.1 °F 33.8 °F 93% 29.99 in 7.0 mi NNW 12.7 mph 16.1 mph N/A   Overcast
6:35 PM 35.6 °F 27.5 °F 33.8 °F 93% 29.98 in 4.0 mi NNW 11.5 mph - N/A Rain Light Rain
6:55 PM 35.6 °F 27.5 °F 33.8 °F 93% 29.98 in 2.5 mi NNW 11.5 mph - N/A   Overcast
7:15 PM 35.6 °F 27.1 °F 33.8 °F 93% 29.97 in 2.5 mi NNW 12.7 mph - N/A Rain Light Rain
7:35 PM 35.6 °F 28.6 °F 33.8 °F 93% 29.97 in 3.0 mi NNW 9.2 mph - N/A Rain Light Rain
7:55 PM 35.6 °F 28.6 °F 33.8 °F 93% 29.97 in 2.5 mi NW 9.2 mph - N/A   Mostly Cloudy
8:15 PM 35.6 °F 29.2 °F 33.8 °F 93% 29.96 in 3.0 mi NNW 8.1 mph - N/A Rain Light Rain
8:35 PM 35.6 °F 29.2 °F 33.8 °F 93% 29.96 in 3.0 mi NNW 8.1 mph - N/A Rain Light Rain
8:55 PM 35.6 °F 29.9 °F 33.8 °F 93% 29.97 in 2.5 mi NW 6.9 mph - N/A Snow Light Snow
9:15 PM 33.8 °F 28.6 °F 33.8 °F 100% 29.96 in 2.5 mi NW 5.8 mph - N/A Snow Light Snow
9:35 PM 33.8 °F 30.8 °F 33.8 °F 100% 29.95 in 2.5 mi WNW 3.5 mph - N/A Snow Light Snow
9:55 PM 33.8 °F 28.6 °F 33.8 °F 100% 29.95 in 2.5 mi WNW 5.8 mph - N/A Snow Light Snow
10:15 PM 33.8 °F 27.7 °F 33.8 °F 100% 29.94 in 2.5 mi NW 6.9 mph - N/A Rain Light Rain
10:35 PM 33.8 °F 28.6 °F 33.8 °F 100% 29.94 in 2.5 mi NW 5.8 mph - N/A Snow Light Snow
10:55 PM 33.8 °F 28.6 °F 33.8 °F 100% 29.93 in 3.0 mi WNW 5.8 mph - N/A   Overcast
11:15 PM 33.8 °F 27.7 °F 33.8 °F 100% 29.92 in 4.0 mi West 6.9 mph - N/A Rain Light Rain
11:35 PM 33.8 °F 28.6 °F 33.8 °F 100% 29.91 in 3.0 mi NW 5.8 mph - N/A Snow Light Snow
11:55 PM 33.8 °F 30.8 °F 33.8 °F 100% 29.91 in 3.0 mi WNW 3.5 mph - N/A Rain Light Rain